Content
SEND FEEDBACK

Daily
Averages
Monthly
Summary
Colombia

BOGOTA, COLOMBIA


Home > South America > Colombia
Elevation: 8357 feet     Latitude: 04 42N     Longitude: 074 08W

WEATHER
 
SELECT A DAY
Number of Records: 172,333;   Date Range: 6/30/96 - 10/18/14
 
SHARE

PRINT THIS DATA

[ ← Previous Day ]
WEATHER ALMANAC - JUNE 14, 2013
[ Next Day → ]
[ °C ]   °F
Weather ElementAverageHighLow
Temperature57 °F68 °F (1:00 pm)44.6 °F (5:30 am)
Dewpoint47.8 °F50 °F (8:00 am)44.6 °F (3:00 am)
Humidity72.4 %100 % (4:00 am)38 % (1:00 pm)
Barometer30.30 in30.36 in (10:00 pm)30.23 in (4:00 pm)
Wind Speed7.2 mph15.7 mph (10:00 am)
Weather ElementAverage
Visibility7 mi
Wind DirectionESE (116.6 °)

Weather ElementTotal
Precipitation---
Heating Degree Days8.7 (Base 65)
Growing Degree Days6.3 (Base 50)
Averaged from 32 records on June 14, 2013
WEATHER CONDITIONS BREAKOUT
WIND DIRECTION BREAKOUT
WEATHER BY HOUR - JUNE 14, 2013
[ °C ]   °F
Local TimeTemperatureDewpointHumidityBarometerVisibilityWind DirectionWind SpeedGust SpeedPrecipitationEventsConditions
1:00 AM50.0 °F48.0 °F89 %7.0 miWest (260°)4.5 mphHaze
1:00 AM50.0 °F48.2 °F94 %30.32 in6.2 miWest (260°)4.6 mphPartly Cloudy
2:00 AM48.2 °F46.4 °F93 %30.30 in6.2 miNorth (360°)4.6 mphPartly Cloudy
3:00 AM46.4 °F44.6 °F93 %30.30 in6.2 miNNE (20°)3.5 mphPartly Cloudy
4:00 AM47.0 °F47.0 °F100 %7.0 miWest (260°)4.5 mphHaze
4:00 AM46.4 °F44.6 °F93 %30.29 in6.2 miWNW (290°)3.5 mphPartly Cloudy
5:00 AM46.4 °F44.6 °F93 %30.29 in6.2 miCalmPartly Cloudy
5:30 AM44.6 °F44.6 °F100 %30.30 in6.2 miCalmPartly Cloudy
6:00 AM46.4 °F44.6 °F93 %30.31 in6.2 miWSW (250°)4.6 mphFogShallow Fog
7:00 AM49.0 °F49.0 °F99 %9.0 miNE (50°)4.5 mphHaze
7:00 AM50.0 °F48.2 °F94 %30.33 in6.2 miNE (50°)3.5 mphScattered Clouds
8:00 AM59.0 °F50.0 °F72 %30.33 in6.2 miNE (50°)8.1 mphScattered Clouds
9:00 AM62.6 °F48.2 °F59 %30.34 in6.2 miEast (90°)11.5 mphScattered Clouds
10:00 AM65.0 °F47.0 °F41 %9.0 miENE (70°)15.7 mphHaze
10:00 AM64.4 °F46.4 °F52 %30.34 in6.2 miENE (70°)15.0 mphScattered Clouds
11:00 AM64.4 °F48.2 °F56 %30.32 in6.2 miENE (70°)11.5 mphScattered Clouds
12:00 PM66.2 °F46.4 °F49 %30.31 in6.2 miSE (130°)15.0 mphScattered Clouds
1:00 PM68.0 °F48.0 °F38 %11.0 miSE (130°)13.4 mphHaze
1:00 PM68.0 °F48.2 °F49 %30.28 in6.2 miSE (130°)13.8 mphMostly Cloudy
2:00 PM66.2 °F48.2 °F52 %30.26 in6.2 miSE (140°)11.5 mphScattered Clouds
3:00 PM66.2 °F48.2 °F52 %30.24 in6.2 miESE (120°)11.5 mphScattered Clouds
4:00 PM66.0 °F50.0 °F47 %11.0 miESE (110°)8.9 mphHaze
4:00 PM66.2 °F50.0 °F56 %30.23 in6.2 miESE (110°)9.2 mphScattered Clouds
5:00 PM64.4 °F50.0 °F59 %30.24 in6.2 miSE (140°)9.2 mphScattered Clouds
6:00 PM60.8 °F48.2 °F63 %30.26 in6.2 miSSE (160°)6.9 mphMostly Cloudy
7:00 PM58.0 °F48.0 °F62 %11.0 miESE (110°)4.5 mphPartly Cloudy
7:00 PM59.0 °F48.2 °F67 %30.29 in6.2 miESE (110°)4.6 mphScattered Clouds
8:00 PM57.2 °F48.2 °F72 %30.32 in6.2 miNE (40°)5.8 mphScattered Clouds
9:00 PM57.2 °F48.2 °F72 %30.35 in6.2 miNNE (20°)4.6 mphMostly Cloudy
10:00 PM54.0 °F50.0 °F82 %11.0 miNE (50°)4.5 mphHaze
10:00 PM53.6 °F50.0 °F88 %30.36 in6.2 miNE (50°)3.5 mphMostly Cloudy
11:00 PM53.6 °F50.0 °F88 %30.36 in6.2 miNNE (30°)3.5 mphMostly Cloudy
Hourly data recorded from SKBO, located miles away from Bogota, Colombia







STORIES FROM OUR PARTNERS